SCP
0 -0 -0 -0 -1 -1 -1 -1 -1 -1 -1 -1 -1 -1 -1 -0 -0 -0 -0 -0 -0 0 0 -0 -0 -0 0 0 0 0 0 0 0 0 0 0 0 0 0 0 0 0 0
-0 -0 -0 -0 -1 -1 -1 -1 -1 -1 -1 -1 -1 -1 -1 -0 -0 -0 -0 -0 0 0 0 0 0 0 0 0 0 0 0 0 0 0 0 0 0 0 0 0 0 0 0
-0 -0 -0 -0 -1 -1 -1 -1 -1 -1 -1 -1 -1 -1 -1 -0 -0 -0 -0 -0 -0 -0 -0 0 0 0 0 0 0 0 0 0 0 0 0 0 -0 0 0 0 0 0 0
-0 -0 -0 -0 -0 -1 -1 -1 -1 -1 -1 -0 -0 -0 -0 -0 -0 -0 -0 0 0 -0 0 0 0 0 0 0 0 0 0 0 0 0 0 0 0 0 0 0 0 0 0
-0 0 0 -0 -0 -0 -1 -1 -1 -1 -1 -1 -0 -0 -0 -0 -0 -0 0 -0 -0 -0 0 0 0 0 0 0 0 0 0 0 0 0 0 0 0 0 0 0 0 0 0
0 0 0 -0 -0 -0 -0 -0 -0 -0 -0 -0 -0 -0 -0 -0 -0 -0 -0 -0 -0 0 0 0 0 0 0 0 0 0 0 0 0 0 0 0 0 0 0 0 0 0 0
0 0 0 0 0 -0 -0 -0 -0 -0 -0 -0 -0 -0 -0 0 0 0 -0 -0 -0 0 0 0 0 0 0 0 0 0 0 0 0 0 0 0 0 0 0 0 0 0 0
0 0 0 0 0 0 0 0 0 0 0 0 0 0 0 0 0 0 0 -0 -0 -0 0 0 0 0 -0 -0 0 0 0 0 0 0 0 0 0 0 0 0 0 0 0
0 0 0 0 0 0 0 0 0 0 0 0 0 0 0 0 0 0 0 0 0 0 0 0 0 -0 -0 -0 -0 -0 0 0 0 0 0 0 0 0 0 0 0 0 0
0 0 0 0 0 1 1 0 0 0 0 0 0 0 0 0 0 0 0 0 0 0 0 0 0 0 0 0 0 0 0 0 0 0 0 0 0 0 0 0 0 0 0
-0 -0 0 0 0 1 1 1 1 0 0 0 0 0 0 0 0 0 0 0 0 0 0 0 -0 -0 -0 -0 -0 0 0 0 0 0 -0 -0 -0 -0 0 0 0 0 0
-0 -0 0 0 0 1 0 1 1 1 1 1 1 1 0 0 0 0 0 0 0 0 0 0 0 0 -0 -0 -0 0 0 -0 0 0 0 -0 0 -0 -0 0 0 0 0
-0 -0 0 0 0 1 1 1 1 1 1 1 1 1 0 0 0 0 0 0 0 0 0 0 0 0 0 0 0 0 0 0 0 0 0 -0 0 0 0 0 0 0 1
0 0 0 0 1 1 1 1 1 1 1 1 1 1 0 0 0 0 0 0 0 0 0 0 0 0 0 0 0 0 0 0 0 0 0 0 0 0 0 0 0 1 1
0 1 0 1 1 1 1 2 1 1 1 1 1 1 1 0 0 0 0 0 0 0 0 0 0 0 0 0 0 0 0 0 0 0 0 0 0 0 0 0 0 1 1
0 0 1 0 1 1 1 1 2 1 1 1 1 1 0 0 0 0 0 0 0 0 0 0 0 0 0 0 0 0 0 0 0 0 0 0 0 0 0 0 0 1 1
0 1 1 1 1 1 1 1 1 1 1 1 1 1 1 1 0 0 0 0 0 0 0 0 0 0 0 0 0 0 0 0 0 0 0 0 0 0 0 0 0 1 1
0 0 0 1 0 0 0 1 1 1 1 1 1 1 1 1 1 1 1 1 1 1 0 0 0 0 0 0 0 0 0 0 0 0 0 0 0 0 0 1 1 1 1
0 0 0 0 0 0 0 1 1 1 0 1 1 1 1 1 1 1 1 1 1 1 1 1 1 0 1 0 0 0 0 0 0 0 0 0 0 0 1 0 1 1 1
0 0 0 0 0 0 0 0 1 0 0 0 0 0 0 1 1 1 2 1 1 1 0 0 0 1 0 1 0 0 0 0 0 0 0 0 0 1 1 1 1 1 1
0 0 0 0 0 0 0 0 0 1 1 1 1 1 1 0 0 0 1 1 1 1 1 1 0 0 1 0 0 0 0 0 0 0 0 0 0 1 1 1 1 2 1
0 0 0 0 0 0 0 0 0 0 0 0 0 0 0 0 1 1 1 1 1 1 1 1 1 1 1 0 1 0 0 0 0 0 0 0 0 1 1 1 2 1 1
0 0 0 0 0 0 0 0 0 0 0 0 0 0 0 0 0 0 0 1 1 1 1 1 1 1 1 1 0 1 0 0 0 0 0 0 0 1 1 1 1 1 1
0 0 0 0 0 0 0 0 0 0 0 0 0 0 0 0 0 0 0 0 0 0 1 1 1 1 1 0 1 1 0 1 1 0 0 0 0 0 0 0 1 1 1
0 0 0 0 0 0 0 0 0 0 0 0 0 0 0 0 0 0 0 0 0 0 0 0 0 1 1 1 1 1 1 0 0 0 0 0 0 0 0 0 0 1 1
0 0 0 0 0 0 0 0 0 0 0 0 0 0 0 0 0 0 0 0 0 0 0 0 0 0 0 1 1 1 1 1 0 0 0 0 0 0 0 0 0 0 0
Wind_Speed_500mb
56 56 56 53 49 44 40 38 36 37 38 37 35 33 31 26 23 25 32 31 31 31 31 29 25 22 19 18 19 21 21 25 26 27 25 29 30 27 25 21 18 15 13
60 61 59 55 49 44 40 38 37 36 33 32 33 31 28 25 24 30 33 32 31 29 25 22 20 19 18 19 18 19 21 21 21 21 24 27 29 28 24 21 17 13 12
58 62 59 54 49 43 42 41 39 35 32 31 31 29 26 26 29 33 34 31 28 26 23 21 20 20 19 17 16 15 13 13 13 15 19 21 25 25 21 19 17 13 11
56 60 58 53 48 45 43 42 40 37 34 31 29 27 28 31 34 35 34 30 27 24 22 22 21 20 18 16 14 16 15 12 11 12 15 16 19 22 19 16 15 13 12
58 59 57 51 48 47 43 40 39 38 36 33 30 30 33 36 37 36 32 29 25 23 21 21 20 19 16 14 14 14 11 9 9 9 11 12 14 17 18 12 12 12 11
56 59 55 50 48 48 43 40 38 35 34 34 33 35 37 38 37 36 33 28 24 21 20 20 19 18 16 15 14 14 12 7 4 4 5 5 7 12 14 11 10 11 10
57 57 54 50 47 47 44 39 36 34 34 35 35 36 38 39 38 35 32 28 24 22 20 18 18 17 16 14 15 15 15 11 8 3 3 4 3 7 11 11 9 9 9
53 56 54 50 47 46 44 40 36 33 33 34 35 35 36 36 34 32 28 25 23 21 18 17 17 17 16 16 16 17 18 18 15 10 6 5 6 6 6 10 10 9 10
49 50 53 51 50 47 45 42 39 35 32 32 33 33 32 31 29 27 25 23 20 18 17 16 16 17 17 17 18 19 20 21 21 19 15 11 11 10 8 7 12 11 10
50 49 51 50 49 50 48 44 41 38 35 31 30 30 31 30 29 28 26 24 22 20 19 17 17 17 17 18 19 21 23 26 26 25 25 19 19 15 13 8 9 13 12
53 52 52 52 52 51 49 47 43 39 36 35 33 31 31 31 31 30 28 26 25 24 23 22 23 23 22 23 24 25 28 28 30 29 28 29 26 22 19 16 11 13 15
52 50 49 52 52 51 50 49 47 45 44 42 40 37 35 32 30 30 32 32 32 31 30 30 30 30 31 31 32 33 34 33 34 33 33 31 30 26 22 20 16 16 18
43 46 44 50 53 52 51 50 50 50 48 46 43 41 39 38 37 36 35 34 35 36 36 37 37 38 39 40 39 39 40 39 38 37 37 34 35 34 31 28 25 21 22
44 45 46 46 48 46 50 53 52 52 51 50 47 45 44 44 44 43 42 41 41 40 43 44 45 43 45 46 48 45 44 44 43 42 38 39 41 41 41 36 32 28 27
49 46 44 44 43 44 44 48 52 54 53 47 46 46 45 46 46 46 47 48 49 48 49 49 51 52 54 53 54 56 52 51 49 52 49 44 45 45 44 45 40 36 32
34 41 47 49 49 49 49 47 50 52 49 47 44 42 41 42 43 44 48 50 52 53 54 55 58 60 60 59 64 63 64 58 59 55 54 55 52 53 52 50 48 43 36
27 24 32 35 43 51 55 55 53 51 46 42 39 38 37 37 39 42 45 47 50 54 57 59 61 64 66 68 69 66 65 63 63 61 61 62 62 60 61 58 51 47 44
25 27 29 33 38 45 51 56 55 51 41 37 34 31 31 34 38 42 45 49 46 48 49 55 57 60 64 67 70 71 70 70 68 65 66 66 67 65 65 65 63 58 56
33 29 26 25 25 28 36 45 49 46 41 36 34 32 30 33 37 37 43 44 45 51 56 56 58 59 63 65 67 68 68 69 71 68 66 73 74 69 65 65 70 64 63
40 32 26 23 26 30 32 31 35 39 37 30 28 33 35 35 36 39 43 47 46 49 55 57 58 62 66 69 73 73 74 70 69 70 72 73 75 78 73 71 69 67 69
47 39 34 34 32 31 31 33 37 38 32 27 27 28 30 33 38 41 45 49 50 52 54 57 60 63 64 67 69 76 77 73 75 73 74 78 78 74 77 78 76 70 73
52 44 43 40 38 38 37 41 42 39 34 29 25 24 28 34 41 47 51 51 50 51 52 46 44 54 60 59 59 60 58 68 72 68 63 71 80 79 79 78 77 74 79
58 55 52 50 48 49 50 50 46 42 33 25 21 19 22 26 30 36 42 45 46 46 50 52 52 50 51 50 48 48 35 30 50 52 50 54 64 65 66 75 79 82 79
60 61 56 56 55 52 45 39 34 30 25 19 16 16 17 24 29 32 32 35 30 37 43 47 45 50 51 52 52 54 53 63 53 51 57 51 49 54 58 58 62 61 68
61 64 58 54 51 46 36 27 22 17 18 18 19 20 23 27 26 26 30 33 38 45 46 47 46 45 47 51 51 55 56 51 55 74 65 73 64 68 61 66 67 73 69
60 57 47 37 28 20 18 19 18 24 28 26 21 25 27 29 29 31 37 39 41 47 50 48 45 46 44 48 50 55 56 59 49 54 60 67 74 75 69 62 66 78 84
Wind_Direction_500mb
172 170 166 167 168 172 175 173 170 161 154 156 161 163 164 162 157 153 150 149 149 143 139 137 136 133 123 116 107 104 109 108 102 93 86 75 62 57 55 55 52 53 64
168 168 167 168 171 174 177 176 175 170 162 160 162 166 167 166 164 159 157 156 153 149 147 144 142 136 126 120 114 117 123 116 106 103 86 73 64 55 51 53 49 48 53
169 168 168 169 171 175 177 177 175 172 168 168 171 175 179 177 169 163 162 160 155 153 151 145 141 138 135 131 128 134 142 142 127 105 81 76 63 57 49 48 46 48 52
171 169 169 171 170 173 178 177 177 178 178 178 181 184 183 175 169 165 164 162 158 156 152 148 149 150 150 149 145 140 131 138 136 99 79 79 75 65 55 43 48 46 44
173 171 171 172 172 173 178 178 179 182 184 186 187 182 176 172 169 168 168 167 165 163 158 158 160 165 166 163 159 158 160 145 132 89 72 74 76 67 60 42 40 41 33
176 173 172 173 174 174 178 180 181 183 185 183 181 177 174 174 173 174 174 173 173 172 170 171 175 181 181 178 181 190 196 186 165 73 62 58 56 66 56 40 28 36 27
176 175 174 174 177 178 180 184 184 182 181 180 179 178 177 178 179 179 179 179 181 182 183 184 188 193 195 196 197 203 212 222 230 290 330 338 0 53 46 28 0 7 15
181 178 177 177 183 185 185 188 188 186 182 182 182 181 182 183 184 185 187 189 191 193 197 200 202 204 206 211 214 217 223 231 237 255 255 284 296 334 25 11 354 345 340
185 184 182 183 187 191 192 193 193 192 189 187 187 188 189 192 195 197 199 204 207 211 216 219 220 220 220 222 226 230 236 244 249 253 255 261 274 293 313 352 335 331 327
188 191 190 190 194 197 197 199 199 199 199 196 194 194 197 199 203 209 213 217 220 226 231 235 239 240 238 237 236 237 241 247 254 257 256 258 264 276 283 297 320 318 315
193 196 196 198 201 203 203 202 204 206 208 209 207 205 206 208 212 216 220 225 229 232 237 240 241 242 242 243 243 242 243 247 252 254 254 258 250 262 271 277 293 303 305
192 198 203 204 208 209 209 209 210 211 213 215 217 218 218 220 223 226 228 230 231 233 236 240 244 244 244 246 247 247 248 249 253 258 257 256 254 255 262 264 274 286 291
193 198 203 209 210 212 217 219 219 219 220 222 224 227 230 232 235 238 242 245 247 247 245 243 245 248 251 250 251 252 254 256 255 256 257 250 246 251 255 262 263 272 280
210 208 208 211 214 216 223 224 227 227 228 228 230 233 237 240 244 247 250 253 256 260 265 265 261 258 260 265 267 264 266 266 264 261 264 261 251 255 259 258 262 267 272
220 220 223 223 225 222 226 229 231 233 235 237 240 243 247 250 253 257 260 261 262 263 265 269 273 277 277 273 270 271 269 270 267 268 268 261 258 257 258 263 262 261 270
218 224 227 229 232 234 234 236 236 236 239 242 247 251 257 259 260 262 265 267 269 272 274 275 276 275 275 275 277 275 276 272 275 274 269 265 261 261 259 260 259 256 261
225 221 223 231 239 241 238 240 240 238 239 245 253 258 261 264 266 269 273 272 273 276 275 275 276 277 277 277 275 276 275 274 274 274 274 271 264 260 258 260 260 254 258
216 214 218 229 234 239 244 243 242 239 240 243 248 253 259 266 271 274 278 283 286 282 281 279 283 282 280 279 279 278 278 277 274 273 269 267 267 265 263 259 259 256 261
224 220 216 221 230 244 249 237 235 234 233 233 237 250 260 266 274 282 282 284 286 287 286 284 280 282 284 285 286 285 282 277 276 275 272 265 264 266 267 263 259 258 261
221 217 221 228 216 218 224 230 226 231 242 247 247 255 269 273 275 276 282 286 286 283 286 286 284 281 280 282 283 284 282 281 279 274 268 268 268 266 264 266 267 266 263
203 206 228 234 228 222 217 214 221 227 228 238 242 245 256 271 278 280 282 284 286 284 282 282 282 284 286 287 288 286 284 281 279 274 270 266 269 269 266 265 267 266 269
208 216 229 226 224 226 225 220 219 219 215 214 219 235 252 261 268 273 277 280 281 281 279 284 285 284 283 285 285 284 286 290 285 285 282 276 272 272 270 269 269 268 268
217 224 217 214 214 211 205 203 199 196 197 207 224 251 271 279 281 280 282 287 289 290 289 287 284 283 284 284 283 271 275 268 290 287 289 285 286 282 278 274 273 269 269
226 217 211 204 197 193 195 201 212 218 220 227 247 258 283 302 303 303 296 294 306 309 309 300 290 282 282 279 279 278 273 269 274 289 285 283 278 275 275 277 282 278 272
222 206 199 195 191 196 201 205 220 239 262 263 274 288 298 305 307 307 310 301 300 313 312 311 300 280 274 276 272 273 274 273 274 267 272 278 280 277 276 278 273 275 277
207 195 191 189 192 203 225 237 262 288 282 267 281 286 291 293 293 293 286 295 300 303 308 306 303 298 281 274 273 269 267 265 267 265 264 269 275 268 264 266 264 267 272
Wind_Speed_850mb
56 56 56 53 49 44 40 38 36 37 38 37 35 33 31 26 23 25 32 31 31 31 31 29 25 22 19 18 19 21 21 25 26 27 25 29 30 27 25 21 18 15 13
60 61 59 55 49 44 40 38 37 36 33 32 33 31 28 25 24 30 33 32 31 29 25 22 20 19 18 19 18 19 21 21 21 21 24 27 29 28 24 21 17 13 12
58 62 59 54 49 43 42 41 39 35 32 31 31 29 26 26 29 33 34 31 28 26 23 21 20 20 19 17 16 15 13 13 13 15 19 21 25 25 21 19 17 13 11
56 60 58 53 48 45 43 42 40 37 34 31 29 27 28 31 34 35 34 30 27 24 22 22 21 20 18 16 14 16 15 12 11 12 15 16 19 22 19 16 15 13 12
58 59 57 51 48 47 43 40 39 38 36 33 30 30 33 36 37 36 32 29 25 23 21 21 20 19 16 14 14 14 11 9 9 9 11 12 14 17 18 12 12 12 11
56 59 55 50 48 48 43 40 38 35 34 34 33 35 37 38 37 36 33 28 24 21 20 20 19 18 16 15 14 14 12 7 4 4 5 5 7 12 14 11 10 11 10
57 57 54 50 47 47 44 39 36 34 34 35 35 36 38 39 38 35 32 28 24 22 20 18 18 17 16 14 15 15 15 11 8 3 3 4 3 7 11 11 9 9 9
53 56 54 50 47 46 44 40 36 33 33 34 35 35 36 36 34 32 28 25 23 21 18 17 17 17 16 16 16 17 18 18 15 10 6 5 6 6 6 10 10 9 10
49 50 53 51 50 47 45 42 39 35 32 32 33 33 32 31 29 27 25 23 20 18 17 16 16 17 17 17 18 19 20 21 21 19 15 11 11 10 8 7 12 11 10
50 49 51 50 49 50 48 44 41 38 35 31 30 30 31 30 29 28 26 24 22 20 19 17 17 17 17 18 19 21 23 26 26 25 25 19 19 15 13 8 9 13 12
53 52 52 52 52 51 49 47 43 39 36 35 33 31 31 31 31 30 28 26 25 24 23 22 23 23 22 23 24 25 28 28 30 29 28 29 26 22 19 16 11 13 15
52 50 49 52 52 51 50 49 47 45 44 42 40 37 35 32 30 30 32 32 32 31 30 30 30 30 31 31 32 33 34 33 34 33 33 31 30 26 22 20 16 16 18
43 46 44 50 53 52 51 50 50 50 48 46 43 41 39 38 37 36 35 34 35 36 36 37 37 38 39 40 39 39 40 39 38 37 37 34 35 34 31 28 25 21 22
44 45 46 46 48 46 50 53 52 52 51 50 47 45 44 44 44 43 42 41 41 40 43 44 45 43 45 46 48 45 44 44 43 42 38 39 41 41 41 36 32 28 27
49 46 44 44 43 44 44 48 52 54 53 47 46 46 45 46 46 46 47 48 49 48 49 49 51 52 54 53 54 56 52 51 49 52 49 44 45 45 44 45 40 36 32
34 41 47 49 49 49 49 47 50 52 49 47 44 42 41 42 43 44 48 50 52 53 54 55 58 60 60 59 64 63 64 58 59 55 54 55 52 53 52 50 48 43 36
27 24 32 35 43 51 55 55 53 51 46 42 39 38 37 37 39 42 45 47 50 54 57 59 61 64 66 68 69 66 65 63 63 61 61 62 62 60 61 58 51 47 44
25 27 29 33 38 45 51 56 55 51 41 37 34 31 31 34 38 42 45 49 46 48 49 55 57 60 64 67 70 71 70 70 68 65 66 66 67 65 65 65 63 58 56
33 29 26 25 25 28 36 45 49 46 41 36 34 32 30 33 37 37 43 44 45 51 56 56 58 59 63 65 67 68 68 69 71 68 66 73 74 69 65 65 70 64 63
40 32 26 23 26 30 32 31 35 39 37 30 28 33 35 35 36 39 43 47 46 49 55 57 58 62 66 69 73 73 74 70 69 70 72 73 75 78 73 71 69 67 69
47 39 34 34 32 31 31 33 37 38 32 27 27 28 30 33 38 41 45 49 50 52 54 57 60 63 64 67 69 76 77 73 75 73 74 78 78 74 77 78 76 70 73
52 44 43 40 38 38 37 41 42 39 34 29 25 24 28 34 41 47 51 51 50 51 52 46 44 54 60 59 59 60 58 68 72 68 63 71 80 79 79 78 77 74 79
58 55 52 50 48 49 50 50 46 42 33 25 21 19 22 26 30 36 42 45 46 46 50 52 52 50 51 50 48 48 35 30 50 52 50 54 64 65 66 75 79 82 79
60 61 56 56 55 52 45 39 34 30 25 19 16 16 17 24 29 32 32 35 30 37 43 47 45 50 51 52 52 54 53 63 53 51 57 51 49 54 58 58 62 61 68
61 64 58 54 51 46 36 27 22 17 18 18 19 20 23 27 26 26 30 33 38 45 46 47 46 45 47 51 51 55 56 51 55 74 65 73 64 68 61 66 67 73 69
60 57 47 37 28 20 18 19 18 24 28 26 21 25 27 29 29 31 37 39 41 47 50 48 45 46 44 48 50 55 56 59 49 54 60 67 74 75 69 62 66 78 84
Wind_Direction_850mb
172 170 166 167 168 172 175 173 170 161 154 156 161 163 164 162 157 153 150 149 149 143 139 137 136 133 123 116 107 104 109 108 102 93 86 75 62 57 55 55 52 53 64
168 168 167 168 171 174 177 176 175 170 162 160 162 166 167 166 164 159 157 156 153 149 147 144 142 136 126 120 114 117 123 116 106 103 86 73 64 55 51 53 49 48 53
169 168 168 169 171 175 177 177 175 172 168 168 171 175 179 177 169 163 162 160 155 153 151 145 141 138 135 131 128 134 142 142 127 105 81 76 63 57 49 48 46 48 52
171 169 169 171 170 173 178 177 177 178 178 178 181 184 183 175 169 165 164 162 158 156 152 148 149 150 150 149 145 140 131 138 136 99 79 79 75 65 55 43 48 46 44
173 171 171 172 172 173 178 178 179 182 184 186 187 182 176 172 169 168 168 167 165 163 158 158 160 165 166 163 159 158 160 145 132 89 72 74 76 67 60 42 40 41 33
176 173 172 173 174 174 178 180 181 183 185 183 181 177 174 174 173 174 174 173 173 172 170 171 175 181 181 178 181 190 196 186 165 73 62 58 56 66 56 40 28 36 27
176 175 174 174 177 178 180 184 184 182 181 180 179 178 177 178 179 179 179 179 181 182 183 184 188 193 195 196 197 203 212 222 230 290 330 338 0 53 46 28 0 7 15
181 178 177 177 183 185 185 188 188 186 182 182 182 181 182 183 184 185 187 189 191 193 197 200 202 204 206 211 214 217 223 231 237 255 255 284 296 334 25 11 354 345 340
185 184 182 183 187 191 192 193 193 192 189 187 187 188 189 192 195 197 199 204 207 211 216 219 220 220 220 222 226 230 236 244 249 253 255 261 274 293 313 352 335 331 327
188 191 190 190 194 197 197 199 199 199 199 196 194 194 197 199 203 209 213 217 220 226 231 235 239 240 238 237 236 237 241 247 254 257 256 258 264 276 283 297 320 318 315
193 196 196 198 201 203 203 202 204 206 208 209 207 205 206 208 212 216 220 225 229 232 237 240 241 242 242 243 243 242 243 247 252 254 254 258 250 262 271 277 293 303 305
192 198 203 204 208 209 209 209 210 211 213 215 217 218 218 220 223 226 228 230 231 233 236 240 244 244 244 246 247 247 248 249 253 258 257 256 254 255 262 264 274 286 291
193 198 203 209 210 212 217 219 219 219 220 222 224 227 230 232 235 238 242 245 247 247 245 243 245 248 251 250 251 252 254 256 255 256 257 250 246 251 255 262 263 272 280
210 208 208 211 214 216 223 224 227 227 228 228 230 233 237 240 244 247 250 253 256 260 265 265 261 258 260 265 267 264 266 266 264 261 264 261 251 255 259 258 262 267 272
220 220 223 223 225 222 226 229 231 233 235 237 240 243 247 250 253 257 260 261 262 263 265 269 273 277 277 273 270 271 269 270 267 268 268 261 258 257 258 263 262 261 270
218 224 227 229 232 234 234 236 236 236 239 242 247 251 257 259 260 262 265 267 269 272 274 275 276 275 275 275 277 275 276 272 275 274 269 265 261 261 259 260 259 256 261
225 221 223 231 239 241 238 240 240 238 239 245 253 258 261 264 266 269 273 272 273 276 275 275 276 277 277 277 275 276 275 274 274 274 274 271 264 260 258 260 260 254 258
216 214 218 229 234 239 244 243 242 239 240 243 248 253 259 266 271 274 278 283 286 282 281 279 283 282 280 279 279 278 278 277 274 273 269 267 267 265 263 259 259 256 261
224 220 216 221 230 244 249 237 235 234 233 233 237 250 260 266 274 282 282 284 286 287 286 284 280 282 284 285 286 285 282 277 276 275 272 265 264 266 267 263 259 258 261
221 217 221 228 216 218 224 230 226 231 242 247 247 255 269 273 275 276 282 286 286 283 286 286 284 281 280 282 283 284 282 281 279 274 268 268 268 266 264 266 267 266 263
203 206 228 234 228 222 217 214 221 227 228 238 242 245 256 271 278 280 282 284 286 284 282 282 282 284 286 287 288 286 284 281 279 274 270 266 269 269 266 265 267 266 269
208 216 229 226 224 226 225 220 219 219 215 214 219 235 252 261 268 273 277 280 281 281 279 284 285 284 283 285 285 284 286 290 285 285 282 276 272 272 270 269 269 268 268
217 224 217 214 214 211 205 203 199 196 197 207 224 251 271 279 281 280 282 287 289 290 289 287 284 283 284 284 283 271 275 268 290 287 289 285 286 282 278 274 273 269 269
226 217 211 204 197 193 195 201 212 218 220 227 247 258 283 302 303 303 296 294 306 309 309 300 290 282 282 279 279 278 273 269 274 289 285 283 278 275 275 277 282 278 272
222 206 199 195 191 196 201 205 220 239 262 263 274 288 298 305 307 307 310 301 300 313 312 311 300 280 274 276 272 273 274 273 274 267 272 278 280 277 276 278 273 275 277
207 195 191 189 192 203 225 237 262 288 282 267 281 286 291 293 293 293 286 295 300 303 308 306 303 298 281 274 273 269 267 265 267 265 264 269 275 268 264 266 264 267 272